Home   Weather   Providence   Past weeks
Flag for USA

Past Weather in Providence, Rhode Island, USA — Yesterday and Last 2 Weeks

Now
52 °F

Passing clouds.


Feels Like: 48 °F
Forecast: 63 / 47 °F
Wind: 10 mph from Northeast

Location: Green State Airport

Current Time: Oct 21, 2019 at 7:16:54 am

Latest Report: Oct 21, 2019 at 6:05 am


Visibility: 10 mi

Pressure: 30.04 "Hg

Humidity: 89%

Dew Point: 49 °F

Location of ProvidenceLocation

Past Weather in Providence — Graph

°F

Providence Temperature Yesterday

Maximum temperature yesterday: 60 °F (at 1:51 pm)
Minimum temperature yesterday: 37 °F (at 6:51 am)
Average temperature yesterday: 50 °F

High & Low Weather Summary for the Past Weeks

 TemperatureHumidityPressure
High78 °F (Oct 7, 1:51 pm)100% (Oct 13, 3:51 am)30.40 "Hg (Oct 13, 3:51 am)
Low37 °F (Oct 20, 6:51 am)37% (Oct 15, 3:51 pm)28.85 "Hg (Oct 17, 3:51 am)
Average56 °F78%30.00 "Hg
* Reported Oct 6 6:51 am — Oct 21 6:05 am, Providence. Weather by CustomWeather, © 2019

Note: Actual official high and low records may vary slightly from our data, if they occured in-between our weather recording intervals... More about our weather records

Advertising

Providence Weather History for the Previous 24 Hours

Scroll right to see more
 ConditionsComfort  
Time TempWeatherWind HumidityBarometerVisibility
6:05 am
Mon, Oct 21
52 °FPassing clouds.10 mph89%30.04 "Hg10 mi
5:12 am53 °FMostly cloudy.13 mph86%30.02 "Hg10 mi
4:51 am53 °FOvercast.9 mph86%30.02 "Hg10 mi
3:51 am52 °FMostly cloudy.12 mph89%30.00 "Hg10 mi
3:24 am53 °FMostly cloudy.8 mph86%30.01 "Hg10 mi
3:17 am52 °FOvercast.9 mph89%30.01 "Hg10 mi
2:51 am52 °FMostly cloudy.12 mph89%30.01 "Hg10 mi
2:09 am53 °FLight rain. Overcast.10 mph83%30.02 "Hg10 mi
1:51 am53 °FMostly cloudy.10 mph83%30.02 "Hg10 mi
12:51 am53 °FOvercast.9 mph86%30.03 "Hg10 mi
11:51 pm
Sun, Oct 20
54 °FLight rain. Mostly cloudy.8 mph86%30.05 "Hg10 mi
10:51 pm54 °FLight rain. Mostly cloudy.5 mph86%30.04 "Hg10 mi
9:51 pm54 °FLight rain. Mostly cloudy.5 mph90%30.04 "Hg10 mi
8:51 pm54 °FLight rain. Mostly cloudy.5 mph86%30.05 "Hg10 mi
7:51 pm55 °FLight rain. Overcast.3 mph80%30.05 "Hg10 mi
6:51 pm56 °FMostly cloudy.No wind81%30.04 "Hg10 mi
5:51 pm57 °FMostly cloudy.No wind72%30.04 "Hg10 mi
4:51 pm58 °FMostly cloudy.5 mph70%30.05 "Hg10 mi
3:51 pm59 °FMore clouds than sun.3 mph60%30.07 "Hg10 mi
2:51 pm60 °FOvercast.7 mph56%30.07 "Hg10 mi
1:51 pm60 °FPartly sunny.6 mph47%30.08 "Hg10 mi
12:51 pm59 °FPartly sunny.6 mph46%30.07 "Hg10 mi
11:51 am58 °FPartly sunny.5 mph56%30.10 "Hg10 mi
10:51 am54 °FPartly sunny.No wind64%30.11 "Hg10 mi
9:51 am49 °FPartly sunny.No wind77%30.11 "Hg10 mi
8:51 am44 °FPartly sunny.No wind82%30.10 "Hg10 mi
7:51 am39 °FScattered clouds.5 mph93%30.08 "Hg10 mi
Weather by CustomWeather, © 2019

See weather overview